Regional Weather Roundup
Issued by NWS

Home | Current Version | Previous Version | Text Only | Print | Product List | Glossary Off
Versions: 1 2 3 4 5 6 7 8 9 10 11 12 13 14 15 16 17 18 19 20 21 22 23 24 25 26 27 28 29 30 31 32 33 34 35 36 37 38 39 40 41 42 43 44 45 46 47 48 49 50

000
ASUS44 KMEG 300110
RWRTN
TENNESSEE HOURLY STATE WEATHER ROUNDUP
NATIONAL WEATHER SERVICE MEMPHIS TN
700 PM CST THU JAN 29 2015

TNZ002-004-019-021-049-052-054-088>092-300200-
WEST TENNESSEE

CITY           SKY/WX    TMP DP  RH WIND       PRES   REMARKS
MEMPHIS INTL   CLOUDY    46  33  60 N21G26    30.34R
NWS MEMPHIS      N/A     45 N/A N/A MISG        N/A
JACKSON        CLOUDY    43  33  68 N17G28    30.32R
DYERSBURG      CLOUDY    43  25  49 NW12G17   30.36R
UNION CITY     CLOUDY    39  30  70 NW12      30.31R WCI  32
PARIS          CLOUDY    39  28  65 NW8       30.30R WCI  34
LEXINGTON      CLOUDY    43  28  56 NW15      30.28R
SAVANNAH       CLOUDY    45  34  65 N17       30.28R
$$

TNZ008-025-027-028-033-062-065-066-300200-
NORTH MIDDLE TENNESSEE

CITY           SKY/WX    TMP DP  RH WIND       PRES   REMARKS
NASHVILLE      CLOUDY    42  32  67 NW14G24   30.25R
CLARKSVILLE    CLOUDY    41  32  70 NW12      30.27R
SMYRNA         CLOUDY    42  33  70 N21G26    30.25R
COOKEVILLE     CLOUDY    43  36  75 N9        30.17R
CROSSVILLE     CLOUDY    44  36  73 NW13      30.12R
$$

TNZ061-075-076-078-094-096-097-300200-
SOUTH MIDDLE TENNESSEE

CITY           SKY/WX    TMP DP  RH WIND       PRES   REMARKS
FAYETTEVILLE   CLOUDY    48  37  66 MISG      30.16R
TULLAHOMA      CLOUDY    45  36  70 N16       30.18R
WINCHESTER     CLOUDY    48  39  71 N13       30.16R
MCMINNVILLE    MOCLDY    45  36  70 NW15      30.18R
COLUMBIA       CLOUDY    45  37  76 NW14      30.23R
SHELBYVILLE    CLOUDY    45  36  70 N15       30.22R
$$

TNZ017-018-042-046-047-300200-
NORTHEAST TENNESSEE

CITY           SKY/WX    TMP DP  RH WIND       PRES   REMARKS
TRI CITIES     CLOUDY    47  35  63 SW6       30.02S
ELIZABETHTON   CLOUDY    43  34  70 CALM      30.02S
$$

TNZ012-013-036-069-073-074-300200-
CENTRAL EAST TENNESSEE

CITY           SKY/WX    TMP DP  RH WIND       PRES   REMARKS
KNOXVILLE      CLOUDY    53  36  52 SW15      30.04S
OAK RIDGE      CLOUDY    54  35  48 W5        30.07R
GATLINBURG     CLOUDY    54  34  47 SW9       30.03F
MORRISTOWN     CLOUDY    54  37  54 W9        30.04S
$$

TNZ083-085-099-300200-
SOUTHEAST TENNESSEE

CITY           SKY/WX    TMP DP  RH WIND       PRES   REMARKS
CHATTANOOGA    MOCLDY    55  38  52 S5        30.09S
$$

SKY/WX REPORTED AS FAIR MEANS FEW OR NO CLOUDS BELOW
12 THOUSAND FEET.




USA.gov is the U.S. government's official web portal to all federal, state and local government web resources and services.